Home   Weather   France   Chalon-sur-Saône   Past weeks
Flag for France

Past Weather in Chalon-sur-Saône, Saône-et-Loire, France — Yesterday and Last 2 Weeks

Currently: 43 °F. Overcast. (Weather station: Dole Tavaux, France). See more current weather

Past Weather in Chalon-sur-Saône — Graph

°F

Chalon-sur-Saône Temperature Yesterday

Maximum temperature yesterday: 48 °F (at 1:30 pm)
Minimum temperature yesterday: 43 °F (at 12:30 am)
Average temperature yesterday: 45 °F

High & Low Weather Summary for the Past Weeks

 TemperatureHumidityPressure
High59 °F (Nov 16, 1:00 pm)100% (Nov 16, 8:30 am)30.48 "Hg (Nov 16, 8:30 am)
Low32 °F (Nov 23, 7:30 am)62% (Nov 27, 10:00 pm)29.45 "Hg (Nov 17, 12:00 am)
Average46 °F89%29.92 "Hg
* Reported Nov 16 3:00 am — Dec 1 3:30 am, Chalon-sur-Saône. Weather by CustomWeather, © 2022

Note: Actual official high and low records may vary slightly from our data, if they occured in-between our weather recording intervals... More about our weather records

Chalon-sur-Saône Weather History for the Previous 24 Hours

Scroll right to see more
 ConditionsComfort  
Time TempWeatherWind HumidityBarometerVisibility
3:30 am
Thu, Dec 1
45 °FOvercast.10 mph81%30.12 "HgN/A
3:00 am45 °FOvercast.9 mph81%30.12 "HgN/A
2:30 am45 °FOvercast.8 mph81%30.12 "HgN/A
2:00 am43 °FOvercast.7 mph87%30.12 "HgN/A
12:30 am45 °FOvercast.12 mph81%30.12 "HgN/A
12:00 am43 °FPassing clouds.10 mph93%30.12 "HgN/A
11:30 pm
Wed, Nov 30
43 °FClear.7 mph93%30.12 "Hg6 mi
11:00 pm43 °FPassing clouds.8 mph93%30.12 "Hg5 mi
10:30 pm43 °FPassing clouds.9 mph93%30.12 "Hg6 mi
10:00 pm43 °FMostly cloudy.9 mph93%30.12 "Hg6 mi
9:30 pm45 °FClear.8 mph87%30.12 "Hg6 mi
9:00 pm45 °FMostly cloudy.9 mph87%30.12 "HgN/A
8:30 pm45 °FPartly cloudy.9 mph87%30.12 "HgN/A
8:00 pm45 °FMostly cloudy.12 mph93%30.12 "HgN/A
7:30 pm45 °FMostly cloudy.10 mph93%30.12 "HgN/A
7:00 pm45 °FMostly cloudy.12 mph93%30.12 "HgN/A
6:30 pm45 °FMostly cloudy.12 mph93%30.12 "HgN/A
6:00 pm46 °FOvercast.9 mph87%30.09 "HgN/A
5:30 pm46 °FDrizzle. Mostly cloudy.7 mph87%30.09 "Hg6 mi
5:00 pm46 °FMostly cloudy.5 mph87%30.09 "HgN/A
4:30 pm46 °FOvercast.8 mph87%30.09 "HgN/A
4:00 pm46 °FMostly cloudy.9 mph82%30.09 "HgN/A
3:30 pm48 °FOvercast.10 mph76%30.09 "HgN/A
3:00 pm48 °FOvercast.12 mph76%30.09 "HgN/A
2:30 pm48 °FBroken clouds.13 mph82%30.09 "HgN/A
2:00 pm48 °FBroken clouds.13 mph82%30.09 "HgN/A
1:30 pm48 °FBroken clouds.12 mph82%30.09 "HgN/A
1:00 pm46 °FMostly cloudy.12 mph87%30.09 "HgN/A
12:30 pm46 °FOvercast.13 mph87%30.09 "HgN/A
12:00 pm46 °FMostly cloudy.13 mph87%30.09 "HgN/A
11:30 am46 °FMore clouds than sun.13 mph93%30.09 "Hg6 mi
11:00 am46 °FLow clouds.12 mph87%30.12 "Hg5 mi
10:30 am46 °FMostly cloudy.10 mph93%30.12 "Hg4 mi
10:00 am46 °FMostly cloudy.10 mph87%30.12 "Hg4 mi
9:00 am45 °FFog.12 mph93%30.09 "Hg3 mi
8:30 am45 °FFog.10 mph93%30.09 "Hg3 mi
8:00 am45 °FMostly cloudy.10 mph93%30.09 "Hg4 mi
7:00 am45 °FMostly cloudy.9 mph93%30.09 "Hg4 mi
6:30 am45 °FLow clouds.9 mph93%30.09 "Hg4 mi
6:00 am45 °FLow clouds.9 mph93%30.09 "Hg4 mi
5:30 am45 °FPassing clouds.12 mph93%30.09 "Hg4 mi
5:00 am45 °FOvercast.9 mph93%30.09 "Hg5 mi
4:30 am45 °FLow clouds.8 mph93%30.09 "Hg6 mi
4:00 am45 °FLow clouds.8 mph93%30.09 "Hg6 mi
Weather by CustomWeather, © 2022

See weather overview